Location: Newark
(41.8083°N, 72.2500°W)
Time: 10:11:28
(UTC+00:00)

Explorer 11/Cluster Stage 4 - Pass Details

Date: 09 December 2021
Orbit: 467 x 1255 km, 28.8° (Epoch: 23 January)

Event Time Altitude Azimuth Distance (km) Brightness Sun altitude
Rises 05:42:34 0° 235° (SW) 2,980 - -67.1°
Reaches altitude 10° 05:45:16 10° 218° (SW) 2,200 - -66.8°
Maximum altitude 05:49:08 21° 170° (S) 1,752 - -66.3°
Drops below altitude 10° 05:53:38 10° 124° (SE) 2,612 - -65.8°
Sets 05:57:10 0° 110° (ESE) 3,720 - -65.3°
